Find Starlink 32767

NORAD ID: 62601 Int'l Des: 2025-008 Owner: SPXS Country: US Constellation: starlink operational
LEOCIRCULAR

实时位置

正在加载3D地球...

关于 Starlink 32767

正在加载描述...

即将过境

Passes for default location (London). Set your location on the main map for personalized predictions.

高度历史

Loading altitude history...

两行轨道根数

1 62601U 25008Q 26125.55985086 .00024285 00000-0 88969-3 0 9996
2 62601 43.0009 316.6003 0000668 256.8850 103.1927 15.27559147 74321
Epoch: May 5, 2026 • Age: 7 hours

当前状态

高度 483.9 km
速度 7.63 km/s
星下点 30.15°N, 71.38°W
发射日期 Jan 13, 2025
运行时间 1.3 years
类型 internet

技术详情

分类 Payload
质量 730.00 kg
干质量 700.00 kg
总质量 730.00 kg
长度 0.30 m
直径 4.10 m
跨度 29.00 m
形状 Box + pan
制造商 SPXS
平台类型 Starlink V2M
阶段状态 In Orbit
所有者/国家 SPXS/US

Most Searched